Year,Month,Day,Hour,Minute,Value (Times are PST for temperature in C)
2014,11,23,00,00,5.60
2014,11,23,00,01,5.70
2014,11,23,00,02,5.70
2014,11,23,00,03,5.70
2014,11,23,00,04,5.70
2014,11,23,00,05,5.70
2014,11,23,00,06,5.70
2014,11,23,00,07,5.70
2014,11,23,00,08,5.70
2014,11,23,00,09,5.70
2014,11,23,00,10,5.70
2014,11,23,00,11,5.70
2014,11,23,00,12,5.70
2014,11,23,00,13,5.60
2014,11,23,00,14,5.60
2014,11,23,00,15,5.60
2014,11,23,00,16,5.60
2014,11,23,00,17,5.60
2014,11,23,00,18,5.60
2014,11,23,00,19,5.60
2014,11,23,00,20,5.60
2014,11,23,00,21,5.60
2014,11,23,00,22,5.60
2014,11,23,00,23,5.60
2014,11,23,00,24,5.60
2014,11,23,00,25,5.60
2014,11,23,00,26,5.60
2014,11,23,00,27,5.70
2014,11,23,00,28,5.70
2014,11,23,00,29,5.70
2014,11,23,00,30,5.70
2014,11,23,00,31,5.70
2014,11,23,00,32,5.70
2014,11,23,00,33,5.70
2014,11,23,00,34,5.80
2014,11,23,00,35,5.80
2014,11,23,00,36,5.80
2014,11,23,00,37,5.80
2014,11,23,00,38,5.80
2014,11,23,00,39,5.80
2014,11,23,00,40,5.90
2014,11,23,00,41,6.00
2014,11,23,00,42,6.10
2014,11,23,00,43,6.20
2014,11,23,00,44,6.30
2014,11,23,00,45,6.40
2014,11,23,00,46,6.50
2014,11,23,00,47,6.50
2014,11,23,00,48,6.60
2014,11,23,00,49,6.70
2014,11,23,00,50,6.70
2014,11,23,00,51,6.70
2014,11,23,00,52,6.70
2014,11,23,00,53,6.70
2014,11,23,00,54,6.80
2014,11,23,00,55,6.90
2014,11,23,00,56,6.90
2014,11,23,00,57,7.00
2014,11,23,00,58,7.00
2014,11,23,00,59,7.10
2014,11,23,01,00,7.10
2014,11,23,01,01,7.20
2014,11,23,01,02,7.20
2014,11,23,01,03,7.30
2014,11,23,01,04,7.30
2014,11,23,01,05,7.30
2014,11,23,01,06,7.30
2014,11,23,01,07,7.30
2014,11,23,01,08,7.30
2014,11,23,01,09,7.30
2014,11,23,01,10,7.30
2014,11,23,01,11,7.30
2014,11,23,01,12,7.40
2014,11,23,01,13,7.40
2014,11,23,01,14,7.40
2014,11,23,01,15,7.40
2014,11,23,01,16,7.40
2014,11,23,01,17,7.40
2014,11,23,01,18,7.50
2014,11,23,01,19,7.50
2014,11,23,01,20,7.50
2014,11,23,01,21,7.50
2014,11,23,01,22,7.50
2014,11,23,01,23,7.50
2014,11,23,01,24,7.50
2014,11,23,01,25,7.50
2014,11,23,01,26,7.50
2014,11,23,01,27,7.50
2014,11,23,01,28,7.50
2014,11,23,01,29,7.40
2014,11,23,01,30,7.40
2014,11,23,01,31,7.40
2014,11,23,01,32,7.40
2014,11,23,01,33,7.40
2014,11,23,01,34,7.40
2014,11,23,01,35,7.40
2014,11,23,01,36,7.40
2014,11,23,01,37,7.40
2014,11,23,01,38,7.40
2014,11,23,01,39,7.50
2014,11,23,01,40,7.50
2014,11,23,01,41,7.50
2014,11,23,01,42,7.60
2014,11,23,01,43,7.60
2014,11,23,01,44,7.60
2014,11,23,01,45,7.50
2014,11,23,01,46,7.50
2014,11,23,01,47,7.50
2014,11,23,01,48,7.40
2014,11,23,01,49,7.40
2014,11,23,01,50,7.30
2014,11,23,01,51,7.30
2014,11,23,01,52,7.30
2014,11,23,01,53,7.20
2014,11,23,01,54,7.20
2014,11,23,01,55,7.20
2014,11,23,01,56,7.10
2014,11,23,01,57,7.10
2014,11,23,01,58,7.00
2014,11,23,01,59,7.00
2014,11,23,02,00,6.90
2014,11,23,02,01,6.90
2014,11,23,02,02,6.80
2014,11,23,02,03,6.80
2014,11,23,02,04,6.80
2014,11,23,02,05,6.80
2014,11,23,02,06,6.80
2014,11,23,02,07,6.80
2014,11,23,02,08,6.70
2014,11,23,02,09,6.70
2014,11,23,02,10,6.70
2014,11,23,02,11,6.70
2014,11,23,02,12,6.60
2014,11,23,02,13,6.60
2014,11,23,02,14,6.60
2014,11,23,02,15,6.60
2014,11,23,02,16,6.60
2014,11,23,02,17,6.60
2014,11,23,02,18,6.50
2014,11,23,02,19,6.50
2014,11,23,02,20,6.50
2014,11,23,02,21,6.50
2014,11,23,02,22,6.40
2014,11,23,02,23,6.40
2014,11,23,02,24,6.40
2014,11,23,02,25,6.40
2014,11,23,02,26,6.30
2014,11,23,02,27,6.30
2014,11,23,02,28,6.30
2014,11,23,02,29,6.30
2014,11,23,02,30,6.30
2014,11,23,02,31,6.30
2014,11,23,02,32,6.30
2014,11,23,02,33,6.30
2014,11,23,02,34,6.30
2014,11,23,02,35,6.30
2014,11,23,02,36,6.30
2014,11,23,02,37,6.30
2014,11,23,02,38,6.30
2014,11,23,02,39,6.30
2014,11,23,02,40,6.30
2014,11,23,02,41,6.20
2014,11,23,02,42,6.20
2014,11,23,02,43,6.20
2014,11,23,02,44,6.20
2014,11,23,02,45,6.20
2014,11,23,02,46,6.20
2014,11,23,02,47,6.20
2014,11,23,02,48,6.20
2014,11,23,02,49,6.20
2014,11,23,02,50,6.20
2014,11,23,02,51,6.20
2014,11,23,02,52,6.20
2014,11,23,02,53,6.20
2014,11,23,02,54,6.20
2014,11,23,02,55,6.20
2014,11,23,02,56,6.20
2014,11,23,02,57,6.20
2014,11,23,02,58,6.20
2014,11,23,02,59,6.10
2014,11,23,03,00,6.10
2014,11,23,03,01,6.10
2014,11,23,03,02,6.10
2014,11,23,03,03,6.10
2014,11,23,03,04,6.10
2014,11,23,03,05,6.10
2014,11,23,03,06,6.10
2014,11,23,03,07,6.10
2014,11,23,03,08,6.10
2014,11,23,03,09,6.10
2014,11,23,03,10,6.10
2014,11,23,03,11,6.10
2014,11,23,03,12,6.10
2014,11,23,03,13,6.10
2014,11,23,03,14,6.10
2014,11,23,03,15,6.10
2014,11,23,03,16,6.10
2014,11,23,03,17,6.10
2014,11,23,03,18,6.10
2014,11,23,03,19,6.10
2014,11,23,03,20,6.10
2014,11,23,03,21,6.10
2014,11,23,03,22,6.10
2014,11,23,03,23,6.10
2014,11,23,03,24,6.10
2014,11,23,03,25,6.10
2014,11,23,03,26,6.10
2014,11,23,03,27,6.10
2014,11,23,03,28,6.10
2014,11,23,03,29,6.10
2014,11,23,03,30,6.10
2014,11,23,03,31,6.10
2014,11,23,03,32,6.10
2014,11,23,03,33,6.10
2014,11,23,03,34,6.10
2014,11,23,03,35,6.10
2014,11,23,03,36,6.10
2014,11,23,03,37,6.10
2014,11,23,03,38,6.10
2014,11,23,03,39,6.10
2014,11,23,03,40,6.10
2014,11,23,03,41,6.10
2014,11,23,03,42,6.10
2014,11,23,03,43,6.10
2014,11,23,03,44,6.10
2014,11,23,03,45,6.10
2014,11,23,03,46,6.10
2014,11,23,03,47,6.10
2014,11,23,03,48,6.10
2014,11,23,03,49,6.10
2014,11,23,03,50,6.10
2014,11,23,03,51,6.10
2014,11,23,03,52,6.10
2014,11,23,03,53,6.10
2014,11,23,03,54,6.10
2014,11,23,03,55,6.10
2014,11,23,03,56,6.10
2014,11,23,03,57,6.10
2014,11,23,03,58,6.10
2014,11,23,03,59,6.10
2014,11,23,04,00,6.00
2014,11,23,04,01,6.00
2014,11,23,04,02,6.00
2014,11,23,04,03,6.00
2014,11,23,04,04,5.90
2014,11,23,04,05,5.90
2014,11,23,04,06,5.80
2014,11,23,04,07,5.80
2014,11,23,04,08,5.80
2014,11,23,04,09,5.80
2014,11,23,04,10,5.70
2014,11,23,04,11,5.70
2014,11,23,04,12,5.70
2014,11,23,04,13,5.60
2014,11,23,04,14,5.60
2014,11,23,04,15,5.60
2014,11,23,04,16,5.60
2014,11,23,04,17,5.50
2014,11,23,04,18,5.50
2014,11,23,04,19,5.50
2014,11,23,04,20,5.50
2014,11,23,04,21,5.50
2014,11,23,04,22,5.40
2014,11,23,04,23,5.40
2014,11,23,04,24,5.40
2014,11,23,04,25,5.40
2014,11,23,04,26,5.40
2014,11,23,04,27,5.40
2014,11,23,04,28,5.40
2014,11,23,04,29,5.40
2014,11,23,04,30,5.40
2014,11,23,04,31,5.40
2014,11,23,04,32,5.40
2014,11,23,04,33,5.30
2014,11,23,04,34,5.30
2014,11,23,04,35,5.30
2014,11,23,04,36,5.30
2014,11,23,04,37,5.30
2014,11,23,04,38,5.30
2014,11,23,04,39,5.20
2014,11,23,04,40,5.20
2014,11,23,04,41,5.20
2014,11,23,04,42,5.20
2014,11,23,04,43,5.20
2014,11,23,04,44,5.20
2014,11,23,04,45,5.20
2014,11,23,04,46,5.10
2014,11,23,04,47,5.10
2014,11,23,04,48,5.10
2014,11,23,04,49,5.10
2014,11,23,04,50,5.10
2014,11,23,04,51,5.10
2014,11,23,04,52,5.10
2014,11,23,04,53,5.10
2014,11,23,04,54,5.10
2014,11,23,04,55,5.10
2014,11,23,04,56,5.10
2014,11,23,04,57,5.10
2014,11,23,04,58,5.00
2014,11,23,04,59,5.00
2014,11,23,05,00,5.00
2014,11,23,05,01,5.00
2014,11,23,05,02,5.00
2014,11,23,05,03,5.00
2014,11,23,05,04,5.00
2014,11,23,05,05,5.00
2014,11,23,05,06,5.00
2014,11,23,05,07,4.90
2014,11,23,05,08,4.90
2014,11,23,05,09,4.90
2014,11,23,05,10,4.90
2014,11,23,05,11,4.90
2014,11,23,05,12,4.90
2014,11,23,05,13,4.90
2014,11,23,05,14,4.90
2014,11,23,05,15,4.90
2014,11,23,05,16,4.90
2014,11,23,05,17,4.90
2014,11,23,05,18,4.90
2014,11,23,05,19,4.80
2014,11,23,05,20,4.80
2014,11,23,05,21,4.80
2014,11,23,05,22,4.80
2014,11,23,05,23,4.80
2014,11,23,05,24,4.80
2014,11,23,05,25,4.80
2014,11,23,05,26,4.80
2014,11,23,05,27,4.70
2014,11,23,05,28,4.70
2014,11,23,05,29,4.70
2014,11,23,05,30,4.70
2014,11,23,05,31,4.70
2014,11,23,05,32,4.70
2014,11,23,05,33,4.70
2014,11,23,05,34,4.60
2014,11,23,05,35,4.50
2014,11,23,05,36,4.50
2014,11,23,05,37,4.50
2014,11,23,05,38,4.50
2014,11,23,05,39,4.50
2014,11,23,05,40,4.60
2014,11,23,05,41,4.60
2014,11,23,05,42,4.60
2014,11,23,05,43,4.60
2014,11,23,05,44,4.60
2014,11,23,05,45,4.60
2014,11,23,05,46,4.60
2014,11,23,05,47,4.60
2014,11,23,05,48,4.60
2014,11,23,05,49,4.60
2014,11,23,05,50,4.50
2014,11,23,05,51,4.60
2014,11,23,05,52,4.60
2014,11,23,05,53,4.60
2014,11,23,05,54,4.60
2014,11,23,05,55,4.70
2014,11,23,05,56,4.70
2014,11,23,05,57,4.70
2014,11,23,05,58,4.70
2014,11,23,05,59,4.70
2014,11,23,06,00,4.70
2014,11,23,06,01,4.80
2014,11,23,06,02,4.80
2014,11,23,06,03,4.80
2014,11,23,06,04,4.80
2014,11,23,06,05,4.80
2014,11,23,06,06,4.80
2014,11,23,06,07,4.80
2014,11,23,06,08,4.80
2014,11,23,06,09,4.90
2014,11,23,06,10,4.90
2014,11,23,06,11,4.90
2014,11,23,06,12,4.90
2014,11,23,06,13,4.90
2014,11,23,06,14,4.90
2014,11,23,06,15,4.90
2014,11,23,06,16,4.90
2014,11,23,06,17,4.90
2014,11,23,06,18,4.90
2014,11,23,06,19,4.90
2014,11,23,06,20,4.90
2014,11,23,06,21,4.90
2014,11,23,06,22,4.90
2014,11,23,06,23,5.00
2014,11,23,06,24,5.00
2014,11,23,06,25,5.00
2014,11,23,06,26,5.00
2014,11,23,06,27,5.00
2014,11,23,06,28,5.00
2014,11,23,06,29,5.00
2014,11,23,06,30,5.00
2014,11,23,06,31,5.00
2014,11,23,06,32,5.00
2014,11,23,06,33,5.00
2014,11,23,06,34,5.00
2014,11,23,06,35,5.00
2014,11,23,06,36,5.00
2014,11,23,06,37,5.00
2014,11,23,06,38,5.00
2014,11,23,06,39,5.00
2014,11,23,06,40,5.00
2014,11,23,06,41,5.00
2014,11,23,06,42,5.00
2014,11,23,06,43,5.00
2014,11,23,06,44,5.10
2014,11,23,06,45,5.10
2014,11,23,06,46,5.10
2014,11,23,06,47,5.20
2014,11,23,06,48,5.20
2014,11,23,06,49,5.30
2014,11,23,06,50,5.30
2014,11,23,06,51,5.30
2014,11,23,06,52,5.30
2014,11,23,06,53,5.30
2014,11,23,06,54,5.30
2014,11,23,06,55,5.30
2014,11,23,06,56,5.30
2014,11,23,06,57,5.30
2014,11,23,06,58,5.20
2014,11,23,06,59,5.30
2014,11,23,07,00,5.20
2014,11,23,07,01,5.20
2014,11,23,07,02,5.20
2014,11,23,07,03,5.20
2014,11,23,07,04,5.20
2014,11,23,07,05,5.30
2014,11,23,07,06,5.30
2014,11,23,07,07,5.40
2014,11,23,07,08,5.40
2014,11,23,07,09,5.40
2014,11,23,07,10,5.40
2014,11,23,07,11,5.40
2014,11,23,07,12,5.40
2014,11,23,07,13,5.40
2014,11,23,07,14,5.40
2014,11,23,07,15,5.40
2014,11,23,07,16,5.40
2014,11,23,07,17,5.40
2014,11,23,07,18,5.40
2014,11,23,07,19,5.30
2014,11,23,07,20,5.30
2014,11,23,07,21,5.30
2014,11,23,07,22,5.30
2014,11,23,07,23,5.30
2014,11,23,07,24,5.30
2014,11,23,07,25,5.30
2014,11,23,07,26,5.30
2014,11,23,07,27,5.30
2014,11,23,07,28,5.20
2014,11,23,07,29,5.20
2014,11,23,07,30,5.10
2014,11,23,07,31,5.10
2014,11,23,07,32,5.00
2014,11,23,07,33,5.00
2014,11,23,07,34,5.00
2014,11,23,07,35,5.00
2014,11,23,07,36,4.90
2014,11,23,07,37,4.90
2014,11,23,07,38,4.90
2014,11,23,07,39,4.90
2014,11,23,07,40,4.90
2014,11,23,07,41,4.80
2014,11,23,07,42,4.80
2014,11,23,07,43,4.80
2014,11,23,07,44,4.80
2014,11,23,07,45,4.80
2014,11,23,07,46,4.80
2014,11,23,07,47,4.80
2014,11,23,07,48,4.80
2014,11,23,07,49,4.80
2014,11,23,07,50,4.80
2014,11,23,07,51,4.80
2014,11,23,07,52,4.80
2014,11,23,07,53,4.80
2014,11,23,07,54,4.80
2014,11,23,07,55,4.90
2014,11,23,07,56,4.90
2014,11,23,07,57,4.90
2014,11,23,07,58,4.90
2014,11,23,07,59,4.90
2014,11,23,08,00,4.90
2014,11,23,08,01,5.00
2014,11,23,08,02,5.00
2014,11,23,08,03,5.00
2014,11,23,08,04,5.00
2014,11,23,08,05,5.00
2014,11,23,08,06,5.00
2014,11,23,08,07,5.00
2014,11,23,08,08,5.00
2014,11,23,08,09,5.00
2014,11,23,08,10,5.00
2014,11,23,08,11,5.00
2014,11,23,08,12,5.10
2014,11,23,08,13,5.10
2014,11,23,08,14,5.10
2014,11,23,08,15,5.10
2014,11,23,08,16,5.10
2014,11,23,08,17,5.10
2014,11,23,08,18,5.10
2014,11,23,08,19,5.20
2014,11,23,08,20,5.20
2014,11,23,08,21,5.20
2014,11,23,08,22,5.30
2014,11,23,08,23,5.40
2014,11,23,08,24,5.40
2014,11,23,08,25,5.40
2014,11,23,08,26,5.50
2014,11,23,08,27,5.50
2014,11,23,08,28,5.50
2014,11,23,08,29,5.60
2014,11,23,08,30,5.60
2014,11,23,08,31,5.60
2014,11,23,08,32,5.60
2014,11,23,08,33,5.70
2014,11,23,08,34,5.70
2014,11,23,08,35,5.70
2014,11,23,08,36,5.70
2014,11,23,08,37,5.70
2014,11,23,08,38,5.70
2014,11,23,08,39,5.70
2014,11,23,08,40,5.70
2014,11,23,08,41,5.70
2014,11,23,08,42,5.70
2014,11,23,08,43,5.70
2014,11,23,08,44,5.80
2014,11,23,08,45,5.80
2014,11,23,08,46,5.80
2014,11,23,08,47,5.80
2014,11,23,08,48,5.80
2014,11,23,08,49,5.80
2014,11,23,08,50,5.90
2014,11,23,08,51,5.90
2014,11,23,08,52,5.90
2014,11,23,08,53,5.90
2014,11,23,08,54,5.90
2014,11,23,08,55,5.90
2014,11,23,08,56,5.90
2014,11,23,08,57,5.90
2014,11,23,08,58,5.90
2014,11,23,08,59,5.90
2014,11,23,09,00,6.00
2014,11,23,09,01,6.00
2014,11,23,09,02,6.00
2014,11,23,09,03,6.00
2014,11,23,09,04,6.00
2014,11,23,09,05,6.10
2014,11,23,09,06,6.10
2014,11,23,09,07,6.10
2014,11,23,09,08,6.20
2014,11,23,09,09,6.20
2014,11,23,09,10,6.20
2014,11,23,09,11,6.20
2014,11,23,09,12,6.20
2014,11,23,09,13,6.20
2014,11,23,09,14,6.20
2014,11,23,09,15,6.20
2014,11,23,09,16,6.30
2014,11,23,09,17,6.30
2014,11,23,09,18,6.30
2014,11,23,09,19,6.30
2014,11,23,09,20,6.30
2014,11,23,09,21,6.30
2014,11,23,09,22,6.40
2014,11,23,09,23,6.40
2014,11,23,09,24,6.40
2014,11,23,09,25,6.40
2014,11,23,09,26,6.40
2014,11,23,09,27,6.50
2014,11,23,09,28,6.50
2014,11,23,09,29,6.50
2014,11,23,09,30,6.60
2014,11,23,09,31,6.60
2014,11,23,09,32,6.60
2014,11,23,09,33,6.60
2014,11,23,09,34,6.60
2014,11,23,09,35,6.60
2014,11,23,09,36,6.70
2014,11,23,09,37,6.70
2014,11,23,09,38,6.80
2014,11,23,09,39,6.80
2014,11,23,09,40,6.90
2014,11,23,09,41,6.90
2014,11,23,09,42,7.00
2014,11,23,09,43,7.00
2014,11,23,09,44,7.10
2014,11,23,09,45,7.10
2014,11,23,09,46,7.20
2014,11,23,09,47,7.20
2014,11,23,09,48,7.20
2014,11,23,09,49,7.30
2014,11,23,09,50,7.30
2014,11,23,09,51,7.30
2014,11,23,09,52,7.30
2014,11,23,09,53,7.30
2014,11,23,09,54,7.30
2014,11,23,09,55,7.30
2014,11,23,09,56,7.30
2014,11,23,09,57,7.30
2014,11,23,09,58,7.30
2014,11,23,09,59,7.30
2014,11,23,10,00,7.30
2014,11,23,10,01,7.30
2014,11,23,10,02,7.30
2014,11,23,10,03,7.30
2014,11,23,10,04,7.30
2014,11,23,10,05,7.30
2014,11,23,10,06,7.30
2014,11,23,10,07,7.30
2014,11,23,10,08,7.30
2014,11,23,10,09,7.30
2014,11,23,10,10,7.30
2014,11,23,10,11,7.40
2014,11,23,10,12,7.50
2014,11,23,10,13,7.50
2014,11,23,10,14,7.60
2014,11,23,10,15,7.70
2014,11,23,10,16,7.80
2014,11,23,10,17,7.90
2014,11,23,10,18,8.00
2014,11,23,10,19,8.10
2014,11,23,10,20,8.20
2014,11,23,10,21,8.20
2014,11,23,10,22,8.30
2014,11,23,10,23,8.30
2014,11,23,10,24,8.30
2014,11,23,10,25,8.30
2014,11,23,10,26,8.40
2014,11,23,10,27,8.40
2014,11,23,10,28,8.40
2014,11,23,10,29,8.40
2014,11,23,10,30,8.50
2014,11,23,10,31,8.50
2014,11,23,10,32,8.60
2014,11,23,10,33,8.60
2014,11,23,10,34,8.70
2014,11,23,10,35,8.70
2014,11,23,10,36,8.80
2014,11,23,10,37,8.70
2014,11,23,10,38,8.70
2014,11,23,10,39,8.70
2014,11,23,10,40,8.70
2014,11,23,10,41,8.80
2014,11,23,10,42,8.90
2014,11,23,10,43,8.90
2014,11,23,10,44,8.90
2014,11,23,10,45,8.90
2014,11,23,10,46,8.90
2014,11,23,10,47,8.90
2014,11,23,10,48,8.90
2014,11,23,10,49,8.90
2014,11,23,10,50,9.00
2014,11,23,10,51,9.00
2014,11,23,10,52,9.00
2014,11,23,10,53,9.10
2014,11,23,10,54,9.20
2014,11,23,10,55,9.30
2014,11,23,10,56,9.30
2014,11,23,10,57,9.40
2014,11,23,10,58,9.40
2014,11,23,10,59,9.40
2014,11,23,11,00,9.50
2014,11,23,11,01,9.60
2014,11,23,11,02,9.60
2014,11,23,11,03,9.70
2014,11,23,11,04,9.80
2014,11,23,11,05,9.90
2014,11,23,11,06,10.00
2014,11,23,11,07,10.10
2014,11,23,11,08,10.10
2014,11,23,11,09,10.10
2014,11,23,11,10,10.10
2014,11,23,11,11,10.10
2014,11,23,11,12,10.10
2014,11,23,11,13,10.10
2014,11,23,11,14,10.10
2014,11,23,11,15,10.10
2014,11,23,11,16,10.10
2014,11,23,11,17,10.10
2014,11,23,11,18,10.10
2014,11,23,11,19,10.10
2014,11,23,11,20,10.10
2014,11,23,11,21,10.10
2014,11,23,11,22,10.10
2014,11,23,11,23,10.20
2014,11,23,11,24,10.20
2014,11,23,11,25,10.30
2014,11,23,11,26,10.30
2014,11,23,11,27,10.40
2014,11,23,11,28,10.40
2014,11,23,11,29,10.40
2014,11,23,11,30,10.40
2014,11,23,11,31,10.40
2014,11,23,11,32,10.40
2014,11,23,11,33,10.40
2014,11,23,11,34,10.40
2014,11,23,11,35,10.30
2014,11,23,11,36,10.30
2014,11,23,11,37,10.20
2014,11,23,11,38,10.20
2014,11,23,11,39,10.10
2014,11,23,11,40,10.10
2014,11,23,11,41,10.00
2014,11,23,11,42,10.00
2014,11,23,11,43,10.00
2014,11,23,11,44,10.00
2014,11,23,11,45,10.00
2014,11,23,11,46,10.00
2014,11,23,11,47,10.00
2014,11,23,11,48,10.00
2014,11,23,11,49,10.00
2014,11,23,11,50,10.00
2014,11,23,11,51,10.00
2014,11,23,11,52,10.00
2014,11,23,11,53,10.10
2014,11,23,11,54,10.10
2014,11,23,11,55,10.10
2014,11,23,11,56,10.10
2014,11,23,11,57,10.10
2014,11,23,11,58,10.10
2014,11,23,11,59,10.10
2014,11,23,12,00,10.10
2014,11,23,12,01,10.10
2014,11,23,12,02,10.10
2014,11,23,12,03,10.10
2014,11,23,12,04,10.10
2014,11,23,12,05,10.10
2014,11,23,12,06,10.10
2014,11,23,12,07,10.10
2014,11,23,12,08,10.20
2014,11,23,12,09,10.20
2014,11,23,12,10,10.30
2014,11,23,12,11,10.30
2014,11,23,12,12,10.30
2014,11,23,12,13,10.30
2014,11,23,12,14,10.40
2014,11,23,12,15,10.40
2014,11,23,12,16,10.40
2014,11,23,12,17,10.40
2014,11,23,12,18,10.40
2014,11,23,12,19,10.40
2014,11,23,12,20,10.40
2014,11,23,12,21,10.40
2014,11,23,12,22,10.40
2014,11,23,12,23,10.30
2014,11,23,12,24,10.30
2014,11,23,12,25,10.30
2014,11,23,12,26,10.30
2014,11,23,12,27,10.20
2014,11,23,12,28,10.20
2014,11,23,12,29,10.20
2014,11,23,12,30,10.30
2014,11,23,12,31,10.30
2014,11,23,12,32,10.30
2014,11,23,12,33,10.30
2014,11,23,12,34,10.30
2014,11,23,12,35,10.30
2014,11,23,12,36,10.30
2014,11,23,12,37,10.30
2014,11,23,12,38,10.20
2014,11,23,12,39,10.20
2014,11,23,12,40,10.30
2014,11,23,12,41,10.30
2014,11,23,12,42,10.40
2014,11,23,12,43,10.40
2014,11,23,12,44,10.50
2014,11,23,12,45,10.50
2014,11,23,12,46,10.50
2014,11,23,12,47,10.60
2014,11,23,12,48,10.60
2014,11,23,12,49,10.60
2014,11,23,12,50,10.60
2014,11,23,12,51,10.60
2014,11,23,12,52,10.60
2014,11,23,12,53,10.60
2014,11,23,12,54,10.60
2014,11,23,12,55,10.60
2014,11,23,12,56,10.60
2014,11,23,12,57,10.50
2014,11,23,12,58,10.50
2014,11,23,12,59,10.50
2014,11,23,13,00,10.40
2014,11,23,13,01,10.40
2014,11,23,13,02,10.40
2014,11,23,13,03,10.30
2014,11,23,13,04,10.30
2014,11,23,13,05,10.30
2014,11,23,13,06,10.30
2014,11,23,13,07,10.40
2014,11,23,13,08,10.40
2014,11,23,13,09,10.40
2014,11,23,13,10,10.50
2014,11,23,13,11,10.60
2014,11,23,13,12,10.70
2014,11,23,13,13,10.70
2014,11,23,13,14,10.80
2014,11,23,13,15,10.80
2014,11,23,13,16,10.80
2014,11,23,13,17,10.90
2014,11,23,13,18,11.00
2014,11,23,13,19,11.00
2014,11,23,13,20,11.10
2014,11,23,13,21,11.10
2014,11,23,13,22,11.20
2014,11,23,13,23,11.20
2014,11,23,13,24,11.20
2014,11,23,13,25,11.20
2014,11,23,13,26,11.20
2014,11,23,13,27,11.20
2014,11,23,13,28,11.30
2014,11,23,13,29,11.30
2014,11,23,13,30,11.30
2014,11,23,13,31,11.30
2014,11,23,13,32,11.40
2014,11,23,13,33,11.40
2014,11,23,13,34,11.40
2014,11,23,13,35,11.40
2014,11,23,13,36,11.40
2014,11,23,13,37,11.40
2014,11,23,13,38,11.40
2014,11,23,13,39,11.40
2014,11,23,13,40,11.50
2014,11,23,13,41,11.50
2014,11,23,13,42,11.50
2014,11,23,13,43,11.50
2014,11,23,13,44,11.50
2014,11,23,13,45,11.60
2014,11,23,13,46,11.60
2014,11,23,13,47,11.60
2014,11,23,13,48,11.50
2014,11,23,13,49,11.50
2014,11,23,13,50,11.50
2014,11,23,13,51,11.50
2014,11,23,13,52,11.50
2014,11,23,13,53,11.50
2014,11,23,13,54,11.50
2014,11,23,13,55,11.60
2014,11,23,13,56,11.60
2014,11,23,13,57,11.60
2014,11,23,13,58,11.60
2014,11,23,13,59,11.60
2014,11,23,14,00,11.60
2014,11,23,14,01,11.60
2014,11,23,14,02,11.60
2014,11,23,14,03,11.60
2014,11,23,14,04,11.60
2014,11,23,14,05,11.60
2014,11,23,14,06,11.70
2014,11,23,14,07,11.70
2014,11,23,14,08,11.70
2014,11,23,14,09,11.70
2014,11,23,14,10,11.70
2014,11,23,14,11,11.70
2014,11,23,14,12,11.60
2014,11,23,14,13,11.60
2014,11,23,14,14,11.60
2014,11,23,14,15,11.60
2014,11,23,14,16,11.60
2014,11,23,14,17,11.60
2014,11,23,14,18,11.50
2014,11,23,14,19,11.50
2014,11,23,14,20,11.40
2014,11,23,14,21,11.40
2014,11,23,14,22,11.50
2014,11,23,14,23,11.50
2014,11,23,14,24,11.50
2014,11,23,14,25,11.50
2014,11,23,14,26,11.50
2014,11,23,14,27,11.40
2014,11,23,14,28,11.40
2014,11,23,14,29,11.40
2014,11,23,14,30,11.40
2014,11,23,14,31,11.40
2014,11,23,14,32,11.40
2014,11,23,14,33,11.40
2014,11,23,14,34,11.40
2014,11,23,14,35,11.40
2014,11,23,14,36,11.40
2014,11,23,14,37,11.40
2014,11,23,14,38,11.40
2014,11,23,14,39,11.40
2014,11,23,14,40,11.40
2014,11,23,14,41,11.40
2014,11,23,14,42,11.40
2014,11,23,14,43,11.50
2014,11,23,14,44,11.50
2014,11,23,14,45,11.50
2014,11,23,14,46,11.50
2014,11,23,14,47,11.50
2014,11,23,14,48,11.40
2014,11,23,14,49,11.40
2014,11,23,14,50,11.40
2014,11,23,14,51,11.40
2014,11,23,14,52,11.40
2014,11,23,14,53,11.40
2014,11,23,14,54,11.40
2014,11,23,14,55,11.40
2014,11,23,14,56,11.40
2014,11,23,14,57,11.50
2014,11,23,14,58,11.50
2014,11,23,14,59,11.50
2014,11,23,15,00,11.50
2014,11,23,15,01,11.50
2014,11,23,15,02,11.50
2014,11,23,15,03,11.50
2014,11,23,15,04,11.40
2014,11,23,15,05,11.40
2014,11,23,15,06,11.30
2014,11,23,15,07,11.30
2014,11,23,15,08,11.30
2014,11,23,15,09,11.30
2014,11,23,15,10,11.30
2014,11,23,15,11,11.30
2014,11,23,15,12,11.30
2014,11,23,15,13,11.30
2014,11,23,15,14,11.30
2014,11,23,15,15,11.30
2014,11,23,15,16,11.30
2014,11,23,15,17,11.30
2014,11,23,15,18,11.30
2014,11,23,15,19,11.30
2014,11,23,15,20,11.20
2014,11,23,15,21,11.20
2014,11,23,15,22,11.20
2014,11,23,15,23,11.20
2014,11,23,15,24,11.20
2014,11,23,15,25,11.20
2014,11,23,15,26,11.10
2014,11,23,15,27,11.10
2014,11,23,15,28,11.10
2014,11,23,15,29,11.10
2014,11,23,15,30,11.10
2014,11,23,15,31,11.00
2014,11,23,15,32,11.00
2014,11,23,15,33,11.00
2014,11,23,15,34,10.90
2014,11,23,15,35,10.80
2014,11,23,15,36,10.80
2014,11,23,15,37,10.80
2014,11,23,15,38,10.70
2014,11,23,15,39,10.60
2014,11,23,15,40,10.60
2014,11,23,15,41,10.50
2014,11,23,15,42,10.40
2014,11,23,15,43,10.40
2014,11,23,15,44,10.40
2014,11,23,15,45,10.30
2014,11,23,15,46,10.30
2014,11,23,15,47,10.30
2014,11,23,15,48,10.20
2014,11,23,15,49,10.20
2014,11,23,15,50,10.20
2014,11,23,15,51,10.10
2014,11,23,15,52,10.10
2014,11,23,15,53,10.00
2014,11,23,15,54,10.00
2014,11,23,15,55,9.90
2014,11,23,15,56,9.90
2014,11,23,15,57,9.80
2014,11,23,15,58,9.80
2014,11,23,15,59,9.70
2014,11,23,16,00,9.70
2014,11,23,16,01,9.70
2014,11,23,16,02,9.60
2014,11,23,16,03,9.60
2014,11,23,16,04,9.60
2014,11,23,16,05,9.60
2014,11,23,16,06,9.60
2014,11,23,16,07,9.50
2014,11,23,16,08,9.50
2014,11,23,16,09,9.40
2014,11,23,16,10,9.40
2014,11,23,16,11,9.40
2014,11,23,16,12,9.30
2014,11,23,16,13,9.30
2014,11,23,16,14,9.30
2014,11,23,16,15,9.20
2014,11,23,16,16,9.10
2014,11,23,16,17,9.10
2014,11,23,16,18,9.00
2014,11,23,16,19,8.90
2014,11,23,16,20,8.90
2014,11,23,16,21,8.80
2014,11,23,16,22,8.80
2014,11,23,16,23,8.70
2014,11,23,16,24,8.70
2014,11,23,16,25,8.60
2014,11,23,16,26,8.60
2014,11,23,16,27,8.60
2014,11,23,16,28,8.60
2014,11,23,16,29,8.50
2014,11,23,16,30,8.50
2014,11,23,16,31,8.40
2014,11,23,16,32,8.30
2014,11,23,16,33,8.30
2014,11,23,16,34,8.20
2014,11,23,16,35,8.10
2014,11,23,16,36,8.10
2014,11,23,16,37,7.90
2014,11,23,16,38,7.80
2014,11,23,16,39,7.70
2014,11,23,16,40,7.60
2014,11,23,16,41,7.50
2014,11,23,16,42,7.40
2014,11,23,16,43,7.30
2014,11,23,16,44,7.20
2014,11,23,16,45,7.10
2014,11,23,16,46,7.00
2014,11,23,16,47,6.80
2014,11,23,16,48,6.70
2014,11,23,16,49,6.60
2014,11,23,16,50,6.60
2014,11,23,16,51,6.50
2014,11,23,16,52,6.40
2014,11,23,16,53,6.30
2014,11,23,16,54,6.20
2014,11,23,16,55,6.10
2014,11,23,16,56,6.00
2014,11,23,16,57,6.00
2014,11,23,16,58,5.90
2014,11,23,16,59,5.80
2014,11,23,17,00,5.70
2014,11,23,17,01,5.60
2014,11,23,17,02,5.60
2014,11,23,17,03,5.50
2014,11,23,17,04,5.50
2014,11,23,17,05,5.40
2014,11,23,17,06,5.40
2014,11,23,17,07,5.40
2014,11,23,17,08,5.30
2014,11,23,17,09,5.30
2014,11,23,17,10,5.30
2014,11,23,17,11,5.30
2014,11,23,17,12,5.20
2014,11,23,17,13,5.20
2014,11,23,17,14,5.20
2014,11,23,17,15,5.20
2014,11,23,17,16,5.20
2014,11,23,17,17,5.20
2014,11,23,17,18,5.20
2014,11,23,17,19,5.20
2014,11,23,17,20,5.20
2014,11,23,17,21,5.20
2014,11,23,17,22,5.20
2014,11,23,17,23,5.20
2014,11,23,17,24,5.20
2014,11,23,17,25,5.10
2014,11,23,17,26,5.10
2014,11,23,17,27,5.10
2014,11,23,17,28,5.00
2014,11,23,17,29,5.00
2014,11,23,17,30,5.00
2014,11,23,17,31,4.90
2014,11,23,17,32,4.90
2014,11,23,17,33,4.80
2014,11,23,17,34,4.80
2014,11,23,17,35,4.80
2014,11,23,17,36,4.70
2014,11,23,17,37,4.70
2014,11,23,17,38,4.60
2014,11,23,17,39,4.60
2014,11,23,17,40,4.60
2014,11,23,17,41,4.50
2014,11,23,17,42,4.50
2014,11,23,17,43,4.40
2014,11,23,17,44,4.40
2014,11,23,17,45,4.40
2014,11,23,17,46,4.40
2014,11,23,17,47,4.40
2014,11,23,17,48,4.40
2014,11,23,17,49,4.40
2014,11,23,17,50,4.40
2014,11,23,17,51,4.30
2014,11,23,17,52,4.30
2014,11,23,17,53,4.30